Location: ??????
(38.1303°N, 24.0039°E)
Time: 09:51:49
(UTC+00:00)

Cosmos 1833 Rocket - Pass Details

Date: 20 June 2021
Orbit: 832 x 840 km, 71.0° (Epoch: 30 July)

Event Time Altitude Azimuth Distance (km) Brightness Sun altitude
Exits shadow 00:58:18 11° 158° (SSE) 2,402 4.8 -18.8°
Maximum altitude 01:02:50 28° 102° (ESE) 1,536 4.3 -18.2°
Drops below altitude 10° 01:07:31 10° 46° (NE) 2,459 6.4 -17.7°
Sets 01:10:17 0° 35° (NE) 3,399 7.6 -17.3°
